USA 40 R/B DEB

基本信息
目录编号:
23359
目录名称:
USA 40 R/B DEB
国际标识:
1989-061AF
轨道中心:
EARTH
物体状态:
在轨
发射日期:
1989-08-08 UTC
轨道信息
数据来源: 国际轨道数据
星历时间: 2026-09-12T03:13:20+0800
半长轴: 8754.14km
偏心率: 0.2129229
轨道倾角: 56.887°
近地点辐角: 102.779°
升交点赤经: 295.403°
平近点角: 281.793°
近地点: 512.046km
远地点: 4239.96km
周期: 135.856分钟
每日圈数: 10.599432
详细信息
发射场:
AFETR
轨道高度:
LEO
数据来源:
AOE Integration Group
参考系:
TEME
时间系统:
UTC
历元类型:
SGP4
2D轨道图
3D轨道图
轨道高度分析图
轨道倾角分析图
轨道综合分析图
查看轨道综合分析图